Regional Weather Roundup
Issued by NWS

Home | Current Version | Previous Version | Graphics & Text | Print | Product List | Glossary On
Versions: 1 2 3 4 5 6 7 8 9 10 11 12 13 14 15 16 17 18 19 20 21 22 23 24 25 26 27 28 29 30 31 32 33 34 35 36 37 38 39 40 41 42 43 44 45 46 47 48 49 50
000
ASUS43 KFSD 260410
RWRSD

WEATHER ROUNDUP FOR SOUTH DAKOTA
NATIONAL WEATHER SERVICE SIOUX FALLS SD
1100 PM CDT TUE JUL 25 2017

NOTE: "FAIR" INDICATES FEW OR NO CLOUDS BELOW 12,000 FEET WITH NO
SIGNIFICANT WEATHER AND/OR OBSTRUCTIONS TO VISIBILITY.


SDZ001>005-009-010-012>017-260500-
NORTHWEST AND NORTH CENTRAL SOUTH DAKOTA

CITY           SKY/WX    TMP DP  RH WIND       PRES   REMARKS
BUFFALO          N/A     72  56  57 S5        30.04R
FAITH            N/A     74  53  48 N3        30.08R
$$

SDZ012>016-024>037-041>051-057-063-072>074-260500-
SOUTHWEST AND SOUTH CENTRAL SOUTH DAKOTA

CITY           SKY/WX    TMP DP  RH WIND       PRES   REMARKS
RAPID CTY ARPT CLOUDY    75  53  46 N8        30.12R
PIERRE         CLOUDY    77  65  66 NE14      29.97S
CUSTER         CLOUDY    67  56  67 NE10      30.24R
ELLSWORTH AFB  CLOUDY    75  54  48 N12       30.11R
PHILIP         PTCLDY    77  64  64 NE15      30.01S
PINE RIDGE     CLOUDY    77  64  64 NE8       30.04R
SPEARFISH      MOCLDY    68  55  64 CALM      30.18S
WINNER         CLOUDY    73  67  81 E3        29.98R
$$

SDZ004>011-016>023-039-040-260500-
NORTHEAST SOUTH DAKOTA

CITY           SKY/WX    TMP DP  RH WIND       PRES   REMARKS
ABERDEEN       CLOUDY    76  70  82 N12       30.00R
WATERTOWN      CLOUDY    72  66  81 N6        30.00R
BROOKINGS      LGT RAIN  71  68  90 N7        30.00R
SISSETON         N/A     73  72  96 CALM      29.98R
$$

SDZ017-020-022-023-036>040-048>070-260500-
SOUTHEAST SOUTH DAKOTA

CITY           SKY/WX    TMP DP  RH WIND       PRES   REMARKS
SIOUX FALLS    CLOUDY    79  71  76 E12       29.97R
HURON          LGT RAIN  72  70  93 S7        29.97F
CHAMBERLAIN    CLOUDY    72  70  95 E14G21    29.92F
MITCHELL       LGT RAIN  71  70  96 E13       30.01F
YANKTON        CLOUDY    79  68  69 N22G28    29.99R
$$

ABBREVIATIONS USED IN REMARKS
   TC - TEMPERATURE IN CELSIUS
  WCI - WIND CHILL INDEX
   HX - HEAT INDEX
  VSB - VISIBILITY





USA.gov is the U.S. government's official web portal to all federal, state and local government web resources and services.